Location: Unspecified
(33.6682°S, 0.0000°E)
Time: 22:05:45
(UTC+00:00)

Tiros 1 despin weight - Pass Details

Date: 20 June 2019
Orbit: 593 x 643 km, 48.2° (Epoch: 22 October)

Event Time Altitude Azimuth Distance (km) Brightness Sun altitude
Rises 18:04:34 0° 232° (SW) 2,970 ? -13.3°
Reaches altitude 10° 18:06:55 10° 231° (SW) 2,053 ? -13.8°
Maximum altitude 18:11:41 88° 140° (SE) 648 ? -14.7°
Drops below altitude 10° 18:16:20 10° 51° (NE) 2,012 ? -15.6°
Enters shadow 18:16:38 - 51° (NE) 2,125 ? -15.7°
Sets 18:18:38 0° 51° (NE) 2,906 - -16.1°
